DW1437 Weather Reports


time (UTC)temp
C
wind
direction
speed
KPH
gust
KPH
rain 1hr
cm
rain 24hr
cm
rain mn
cm
humidity
%
barometer
mb
20260905175101 21 292 0.0 0.0 0.00 0.00 0.00 59 1023.8
20260905172946 21 312 1.6 6.4 0.00 0.00 0.00 57 1023.6
20260905171913 21 296 0.0 1.6 0.00 0.00 0.00 57 1023.6
20260905170855 21 295 1.6 4.8 0.00 0.00 0.00 55 1023.4
20260905164738 21 281 1.6 9.7 0.00 0.00 0.00 57 1023.5
20260905163742 21 246 1.6 9.7 0.00 0.00 0.00 56 1023.5
20260905162730 21 283 1.6 9.7 0.00 0.00 0.00 55 1023.5
20260905161746 21 234 0.0 1.6 0.00 0.00 0.00 56 1023.5
20260905160804 21 196 0.0 11.3 0.00 0.00 0.00 55 1023.7
20260905155815 21 296 3.2 11.3 0.00 0.00 0.00 58 1023.9
20260905154833 21 315 1.6 9.7 0.00 0.00 0.00 59 1023.8
20260905153822 20 248 1.6 12.9 0.00 0.00 0.00 59 1023.7
20260905152837 20 217 3.2 12.9 0.00 0.00 0.00 58 1023.8
20260905151847 20 290 3.2 8.0 0.00 0.00 0.00 59 1023.8
20260905150856 20 292 3.2 8.0 0.00 0.00 0.00 58 1024.0
20260905145850 20 183 1.6 16.1 0.00 0.00 0.00 60 1024.0
20260905144820 20 254 4.8 16.1 0.00 0.00 0.00 59 1024.1
20260905143757 20 296 4.8 12.9 0.00 0.00 0.00 61 1024.1
20260905142743 20 247 3.2 12.9 0.00 0.00 0.00 61 1024.2
20260905140609 20 277 3.2 12.9 0.00 0.00 0.00 59 1024.2
20260905135551 20 302 1.6 9.7 0.00 0.00 0.00 60 1024.1
20260905134601 20 289 6.4 14.5 0.00 0.00 0.00 60 1024.2
20260905133541 20 302 6.4 14.5 0.00 0.00 0.00 61 1024.2
20260905131412 20 277 6.4 16.1 0.00 0.00 0.00 60 1024.1
20260905130434 20 305 4.8 14.5 0.00 0.00 0.00 62 1024.0
20260905125414 19 265 4.8 14.5 0.00 0.00 0.00 61 1023.9
20260905124432 19 306 6.4 17.7 0.00 0.00 0.00 59 1023.9
20260905123410 19 282 4.8 17.7 0.00 0.00 0.00 61 1023.7
20260905122408 19 296 3.2 17.7 0.00 0.00 0.00 62 1023.8
20260905121412 18 252 4.8 17.7 0.00 0.00 0.00 61 1023.7
20260905120431 18 238 4.8 16.1 0.00 0.00 0.00 62 1023.8
20260905115416 18 285 4.8 16.1 0.00 0.00 0.00 67 1023.8
20260905114420 17 294 4.8 14.5 0.00 0.00 0.00 67 1024.1
20260905111114 18 277 4.8 16.1 0.00 0.00 0.00 67 1024.1
20260905110137 18 257 6.4 16.1 0.00 0.00 0.00 66 1024.0
20260905104016 17 250 4.8 14.5 0.00 0.00 0.00 69 1024.0
20260905101917 17 279 8.0 17.7 0.00 0.00 0.00 69 1024.0
20260905100935 17 266 4.8 14.5 0.00 0.00 0.00 69 1024.0
20260905095918 17 244 4.8 14.5 0.00 0.00 0.00 71 1024.0
20260905094916 17 244 3.2 14.5 0.00 0.00 0.00 72 1023.9
20260905093905 16 322 3.2 14.5 0.00 0.00 0.00 72 1023.8
20260905092846 17 302 4.8 14.5 0.00 0.00 0.00 72 1023.8
20260905091904 16 289 3.2 11.3 0.00 0.00 0.00 73 1023.6
20260905090843 16 284 6.4 11.3 0.00 0.00 0.00 74 1023.5
20260905085828 16 294 3.2 11.3 0.00 0.00 0.00 76 1023.5
20260905084806 16 295 3.2 9.7 0.00 0.00 0.00 77 1023.4
20260905083817 15 267 3.2 12.9 0.00 0.00 0.00 79 1023.4
20260905082833 15 296 4.8 12.9 0.00 0.00 0.00 79 1023.4
20260905081831 15 220 1.6 9.7 0.00 0.00 0.00 83 1023.3
20260905080829 14 268 0.0 4.8 0.00 0.00 0.00 85 1023.2
20260905075817 13 237 1.6 4.8 0.00 0.00 0.00 86 1023.1
20260905074756 13 170 0.0 0.0 0.00 0.00 0.00 86 1022.9
20260905072607 13 250 1.6 4.8 0.00 0.00 0.00 87 1022.8
20260905071626 12 247 1.6 4.8 0.00 0.00 0.00 88 1022.7
20260905070606 12 238 0.0 4.8 0.00 0.00 0.00 88 1022.6
20260905064518 12 247 0.0 3.2 0.00 0.00 0.00 89 1022.2
20260905061123 11 261 0.0 1.6 0.00 0.08 0.00 88 1021.8
20260905060138 11 261 0.0 3.2 0.00 0.10 0.00 89 1021.7
20260905052822 11 273 0.0 3.2 0.00 0.13 0.00 89 1021.1
20260905051817 11 277 0.0 0.0 0.00 0.15 0.00 87 1020.9
20260905050753 11 277 0.0 1.6 0.00 0.15 0.00 87 1020.9
20260905045759 12 274 0.0 3.2 0.00 0.18 0.00 87 1020.9
20260905043725 12 259 1.6 6.4 0.00 0.28 0.00 87 1020.7
20260905042716 12 254 1.6 6.4 0.00 0.41 0.00 86 1020.8
20260905041715 12 227 1.6 4.8 0.00 0.43 0.00 86 1020.7
20260905040724 12 263 1.6 6.4 0.00 0.43 0.00 86 1020.6
20260905035711 12 259 1.6 6.4 0.00 0.46 0.00 85 1020.5
20260905033550 13 270 1.6 9.7 0.00 0.46 0.00 85 1020.3
20260905031458 13 232 3.2 14.5 0.00 0.46 0.00 85 1020.2
20260905030457 13 242 4.8 14.5 0.00 0.46 0.00 85 1020.0
20260905025437 13 236 3.2 12.9 0.00 0.46 0.00 85 1019.8
20260905024451 13 261 3.2 12.9 0.00 0.46 0.00 85 1019.8
20260905023425 13 265 3.2 12.9 0.00 0.46 0.00 85 1019.8
20260905022358 13 279 1.6 12.9 0.00 0.46 0.00 85 1019.7
20260905021336 13 267 3.2 12.9 0.00 0.46 0.00 86 1019.6
20260905020332 13 290 0.0 9.7 0.00 0.46 0.00 85 1019.5
20260905015310 13 275 0.0 3.2 0.00 0.46 0.00 85 1019.4
20260905014308 13 237 0.0 0.0 0.00 0.46 0.00 84 1019.5
20260905013331 13 223 3.2 11.3 0.00 0.46 0.00 85 1019.4
20260905012324 13 221 3.2 16.1 0.00 0.46 0.00 85 1019.3
20260905011257 13 269 4.8 16.1 0.00 0.46 0.00 85 1019.1
20260905010247 13 263 4.8 14.5 0.00 0.46 0.00 85 1018.9
20260905005307 13 281 6.4 14.5 0.00 0.46 0.00 86 1019.0
20260905004318 13 269 4.8 9.7 0.00 0.46 0.00 86 1019.2
20260905003247 13 276 4.8 9.7 0.00 0.46 0.00 85 1019.2
20260905001142 13 263 4.8 14.5 0.00 0.46 0.00 85 1019.0
20260905000124 13 279 3.2 9.7 0.00 0.46 0.00 85 1019.0
20260904235124 13 279 4.8 12.9 0.00 0.46 0.00 84 1018.8
20260904232957 13 275 6.4 17.7 0.00 0.46 0.00 84 1018.6
20260904232009 13 306 6.4 17.7 0.00 0.46 0.00 84 1018.6
20260904225833 13 243 6.4 14.5 0.00 0.46 0.46 84 1018.5
20260904224840 13 298 3.2 12.9 0.00 0.46 0.46 84 1018.5
20260904223832 13 230 1.6 12.9 0.00 0.46 0.46 84 1018.5
20260904222815 14 252 1.6 12.9 0.00 0.46 0.46 83 1018.6
20260904220738 14 251 3.2 11.3 0.00 0.46 0.46 83 1018.4
20260904215744 14 240 3.2 11.3 0.00 0.46 0.46 83 1018.4
20260904214757 14 275 3.2 14.5 0.00 0.46 0.46 83 1018.4
20260904212610 14 248 3.2 9.7 0.00 0.46 0.46 82 1018.3
20260904211601 15 275 3.2 12.9 0.00 0.46 0.46 81 1018.4
20260904210622 15 234 3.2 12.9 0.00 0.46 0.46 81 1018.2
20260904205642 15 220 1.6 9.7 0.00 0.46 0.46 82 1018.1
20260904203603 14 217 0.0 6.4 0.00 0.46 0.46 83 1018.0
20260904201358 14 277 0.0 0.0 0.00 0.46 0.46 81 1017.7
20260904200418 14 257 0.0 3.2 0.00 0.46 0.46 80 1017.6
20260904195357 15 271 0.0 3.2 0.00 0.46 0.46 79 1017.4
20260904194402 15 221 1.6 11.3 0.00 0.46 0.46 78 1017.3
20260904192308 15 290 3.2 12.9 0.00 0.46 0.46 77 1017.0
20260904191250 16 248 4.8 16.1 0.00 0.46 0.46 76 1017.0
20260904190312 16 286 6.4 16.1 0.00 0.46 0.46 75 1016.9
20260904185307 16 279 4.8 14.5 0.00 0.46 0.46 75 1016.7
20260904184318 16 284 6.4 14.5 0.00 0.46 0.46 74 1016.6
20260904182155 16 265 8.0 22.5 0.00 0.46 0.46 73 1016.5
20260904181204 16 278 8.0 22.5 0.00 0.46 0.46 72 1016.3
20260904180153 17 287 6.4 17.7 0.00 0.46 0.46 72 1016.3